Klawock, AK

5:47 PM AKDT on April 27, 2017 (GMT -0800)
Klawock

Weather History for PAKW - October, 2011

Change the Weather History Date:

Wednesday, October 19, 2011

  Actual Average Record
Temperature  
Mean Temperature 42 °F -  
Max Temperature 48 °F 49 °F 57 °F (2002)
Min Temperature 37 °F 39 °F 30 °F (2004)
Degree Days  
Heating Degree Days 22    
Moisture  
Dew Point 42 °F    
Average Humidity 94    
Maximum Humidity 100    
Minimum Humidity 80    
Precipitation  
Precipitation 0.35 in - - ()
Sea Level Pressure  
Sea Level Pressure 29.89 in    
Wind  
Wind Speed 2 mph (SSW)    
Max Wind Speed 7 mph    
Max Gust Speed -    
Visibility 7 miles    
Events Rain    
Averages and records for this station are not official NWS values.
T = Trace of Precipitation, MM = Missing Value Source: NWS Daily Summary

Daily Weather History Graph

Daily Weather History Graph

Search for Another Location

Airport or City:

Trip Planner

Search our weather history database for the weather conditions in past years. The results will help you decide how hot, cold, wet, or windy it might be!

Date:

Astronomy

Oct. 19, 2011 Rise Set
Actual Time 7:30 AM AKDT 5:42 PM AKDT
Civil Twilight 6:53 AM AKDT 6:20 PM AKDT
Nautical Twilight 6:10 AM AKDT 7:02 PM AKDT
Astronomical Twilight 5:27 AM AKDT 7:45 PM AKDT
Moon 11:12 PM AKDT (10/19) 2:34 PM AKDT (10/19)
Length of Visible Light 11h 27m
Length of Day
10h 11m
Waning Gibbous, 53% of the Moon is Illuminated
Oct 19
Waning Gibbous
Oct 19
Last Quarter
Oct 26
New
Nov 2
First Quarter
Nov 10
Full

Hourly Weather History & Observations

Time (AKDT) Temp. Windchill Dew Point Humidity Pressure Visibility Wind Dir Wind Speed Gust Speed Precip Events Conditions
12:09 AM 46.4 °F 44.3 °F 44.6 °F 93% 29.86 in 9.0 mi South 4.6 mph - 0.00 in Rain Light Rain
12:53 AM 46.0 °F 43.9 °F 44.1 °F 93% 29.87 in 3.0 mi SSW 4.6 mph - 0.03 in Rain Light Rain
1:42 AM 46.4 °F - 44.6 °F 93% 29.86 in 7.0 mi Calm Calm - 0.01 in Rain Light Rain
1:53 AM 46.0 °F - 45.0 °F 96% 29.87 in 6.0 mi Calm Calm - 0.02 in Rain Light Rain
2:13 AM 46.4 °F - 44.6 °F 93% 29.86 in 10.0 mi Calm Calm - 0.01 in   Overcast
2:28 AM 44.6 °F - 44.6 °F 100% 29.85 in 10.0 mi Calm Calm - 0.01 in   Overcast
2:43 AM 44.6 °F - 44.6 °F 100% 29.85 in 10.0 mi Calm Calm - 0.01 in   Overcast
2:49 AM 44.6 °F 43.1 °F 44.6 °F 100% 29.85 in 10.0 mi South 3.5 mph - 0.01 in   Overcast
2:53 AM 45.0 °F 43.5 °F 44.1 °F 97% 29.86 in 10.0 mi SSE 3.5 mph - 0.01 in   Overcast
3:03 AM 44.6 °F - 44.6 °F 100% 29.85 in 9.0 mi Calm Calm - 0.00 in Rain Light Rain
3:12 AM 46.4 °F 44.3 °F 44.6 °F 93% 29.85 in 6.0 mi SW 4.6 mph - 0.01 in Rain Light Rain
3:20 AM 46.4 °F 45.2 °F 44.6 °F 93% 29.85 in 7.0 mi South 3.5 mph - 0.02 in Rain Light Rain
3:45 AM 44.6 °F - 44.6 °F 100% 29.85 in 10.0 mi Calm Calm - 0.03 in Rain Light Rain
3:53 AM 45.0 °F - 44.1 °F 97% 29.85 in 10.0 mi Calm Calm - 0.03 in   Overcast
4:53 AM 44.1 °F - 43.0 °F 96% 29.84 in 10.0 mi Calm Calm - 0.11 in Rain Light Rain
5:53 AM 43.0 °F - 41.0 °F 93% 29.84 in 10.0 mi Calm Calm - 0.00 in   Mostly Cloudy
6:29 AM 42.8 °F - 42.8 °F 100% 29.83 in 10.0 mi Calm Calm - N/A   Overcast
6:53 AM 42.1 °F - 41.0 °F 96% 29.83 in 5.0 mi Calm Calm - N/A   Overcast
7:37 AM 42.8 °F - 42.8 °F 100% 29.83 in 10.0 mi Calm Calm - 0.00 in Rain Light Rain
7:53 AM 43.0 °F - 42.1 °F 97% 29.83 in 3.0 mi Calm Calm - 0.00 in   Overcast
7:55 AM 42.8 °F - 42.8 °F 100% 29.83 in 1.8 mi Calm Calm - N/A   Overcast
8:03 AM 42.8 °F - 42.8 °F 100% 29.83 in 1.2 mi Calm Calm - N/A   Overcast
8:06 AM 42.8 °F - 42.8 °F 100% 29.83 in 2.0 mi Calm Calm - N/A   Overcast
8:14 AM 42.8 °F - 42.8 °F 100% 29.83 in 9.0 mi Calm Calm - 0.00 in Rain Light Rain
8:42 AM 42.8 °F - 42.8 °F 100% 29.84 in 1.8 mi Calm Calm - 0.06 in Rain Heavy Rain
8:48 AM 42.8 °F - 42.8 °F 100% 29.84 in 2.0 mi Calm Calm - 0.07 in Rain Rain
8:49 AM 43.0 °F - 42.1 °F 97% 29.84 in 2.0 mi Calm Calm - 0.07 in Rain Rain
9:05 AM 42.8 °F - 42.8 °F 100% 29.84 in 3.0 mi Calm Calm - 0.05 in Rain Rain
9:53 AM 44.1 °F - 43.0 °F 96% 29.85 in 10.0 mi Calm Calm - 0.07 in   Overcast
10:53 AM 45.0 °F 43.5 °F 44.1 °F 97% 29.86 in 7.0 mi SSW 3.5 mph - 0.01 in Rain Light Rain
11:13 AM 46.4 °F 43.5 °F 44.6 °F 93% 29.86 in 10.0 mi SW 5.8 mph - 0.00 in   Overcast
11:23 AM 44.6 °F 40.7 °F 42.8 °F 93% 29.86 in 1.8 mi SW 6.9 mph - 0.01 in Rain Light Rain
11:35 AM 44.6 °F 42.2 °F 42.8 °F 93% 29.87 in 3.0 mi South 4.6 mph - 0.01 in Rain Light Rain
12:08 PM 44.6 °F 41.4 °F 42.8 °F 93% 29.87 in 10.0 mi SW 5.8 mph - 0.00 in   Overcast
12:53 PM 45.0 °F 42.6 °F 43.0 °F 93% 29.89 in 10.0 mi SW 4.6 mph - 0.00 in   Overcast
1:53 PM 46.9 °F - 43.0 °F 86% 29.90 in 10.0 mi WSW 6.9 mph - N/A   Overcast
2:06 PM 46.4 °F 43.5 °F 41.0 °F 81% 29.90 in 10.0 mi WSW 5.8 mph - N/A   Overcast
2:53 PM 46.9 °F - 43.0 °F 86% 29.91 in 10.0 mi Calm Calm - N/A   Scattered Clouds
3:13 PM 48.2 °F - 42.8 °F 82% 29.91 in 10.0 mi SSW 5.8 mph - N/A   Mostly Cloudy
3:53 PM 46.9 °F - 41.0 °F 80% 29.92 in 10.0 mi South 3.5 mph - 0.00 in   Overcast
4:53 PM 44.1 °F - 39.9 °F 85% 29.93 in 10.0 mi Calm Calm - 0.00 in   Clear
5:53 PM 43.0 °F 40.3 °F 39.0 °F 86% 29.94 in 10.0 mi SSE 4.6 mph - N/A   Scattered Clouds
6:30 PM 42.8 °F 40.1 °F 37.4 °F 81% 29.94 in 10.0 mi SSE 4.6 mph - N/A   Overcast
6:53 PM 43.0 °F 41.3 °F 37.0 °F 80% 29.95 in 10.0 mi South 3.5 mph - N/A   Overcast
7:53 PM 41.0 °F - 37.9 °F 89% 29.96 in 10.0 mi Calm Calm - N/A   Partly Cloudy
8:53 PM 39.0 °F - 37.9 °F 96% 29.98 in 10.0 mi Calm Calm - N/A   Mostly Cloudy
9:53 PM 39.0 °F - 37.9 °F 96% 29.99 in 9.0 mi Calm Calm - N/A   Mostly Cloudy
10:03 PM 37.4 °F - 37.4 °F 100% 29.99 in 8.0 mi Calm Calm - N/A   Scattered Clouds
10:50 PM 39.2 °F - 37.4 °F 93% 30.00 in 1.8 mi Calm Calm - 0.00 in Rain Light Rain
10:53 PM 39.0 °F - 37.9 °F 96% 30.00 in 1.2 mi Calm Calm - 0.00 in Rain Light Rain
11:23 PM 37.4 °F - 37.4 °F 100% 30.00 in 2.0 mi Calm Calm - 0.00 in   Overcast
11:30 PM 37.4 °F - 37.4 °F 100% 30.00 in 6.0 mi Calm Calm - 0.00 in   Overcast
11:53 PM 39.0 °F - 37.9 °F 96% 30.01 in 10.0 mi Calm Calm - 0.00 in   Overcast